Tracking 30923 objects as of 1-Jul-2025
HD Live streaming from Space Station
objects crossing your sky now

STARLINK-11091

Track STARLINK-11091 now!
10-day predictions


NORAD ID: 61207
Int'l Code: 2024-171H
Perigee: 366.6 km
Apogee: 367.1 km
Inclination: 53.2 °
Period: 91.7 minutes
Semi major axis: 6737 km
RCS: Unknown
Launch date: September 20, 2024
Source: United States (US)
Launch site: AIR FORCE WESTERN TEST RANGE (AFWTR)
Your satellite tracking list
POLYTECH_UNIVERSE-2
Track 1 satellite(s)




NASA's NSSDC Master Catalog

Two Line Element Set (TLE):
1 61207U 24171H   25181.83699280  .00000864  00000-0  11979-4 0  9992
2 61207  53.1590 337.7157 0000402  70.5294 289.5767 15.69715501 45695
Source of the keplerian elements: AFSPC